Theta_e
313 313 313 313 313 313 313 313 313 313 313 312 311 311 310 312 314 315 315 315 316 317 317 315 314 315 319 323 326 331 324 318 324 324 320 324 329 329 330 329 329 331 332 342 343 344 347
314 314 314 314 313 313 312 313 313 312 312 311 310 310 310 311 313 314 314 315 316 317 317 315 315 315 324 327 329 331 324 319 323 322 322 323 329 328 329 329 331 332 342 343 345 350 351
315 315 315 314 314 314 313 312 312 312 312 311 310 309 310 311 312 313 315 315 316 317 318 315 316 319 322 321 325 325 323 323 322 322 325 325 327 326 328 331 330 335 342 342 344 346 351
315 316 316 316 316 316 316 313 312 312 311 311 310 309 310 311 312 313 315 316 317 318 318 315 316 322 314 318 322 327 324 321 320 320 322 324 326 325 329 328 328 330 334 343 341 345 349
316 316 316 317 317 318 318 317 315 312 311 311 310 310 310 311 312 313 316 316 318 317 315 319 325 323 319 322 325 327 327 324 323 323 324 323 325 326 326 328 329 328 332 331 339 339 344
319 319 319 319 318 319 319 319 319 316 313 311 311 310 310 311 312 314 316 316 323 319 319 325 324 319 320 323 324 324 326 324 323 324 326 325 322 325 322 326 332 332 332 333 331 343 346
319 320 320 320 320 320 320 320 320 320 318 314 311 311 311 311 312 314 316 317 318 320 326 324 321 315 318 323 324 322 323 323 322 321 325 324 330 332 328 327 329 330 331 333 347 348 348
319 320 320 320 320 321 321 321 321 321 320 318 314 312 311 311 313 314 318 314 320 320 321 319 323 320 322 323 326 323 322 321 322 323 323 326 331 325 326 326 328 329 329 334 348 342 346
320 319 319 320 320 320 321 321 321 321 321 320 317 314 311 312 313 318 315 320 320 321 320 322 322 324 325 324 326 324 320 320 321 323 323 326 328 323 324 324 326 326 324 336 349 342 338
319 320 320 320 320 320 320 321 321 321 321 321 319 316 311 313 315 314 316 319 320 320 320 320 323 323 323 323 325 321 320 321 321 322 321 322 321 324 323 323 324 326 323 337 344 342 347
320 320 320 320 320 320 320 320 321 321 320 320 320 317 311 312 314 314 318 319 321 319 329 326 323 323 320 322 322 322 320 320 320 321 320 322 324 324 323 323 324 324 324 340 335 333 333
321 321 320 320 320 320 321 320 321 320 320 320 320 316 311 313 314 316 317 320 320 320 329 328 323 323 323 321 319 319 320 318 318 320 319 320 319 321 320 322 322 321 318 318 324 326 329
321 321 320 320 320 320 320 320 321 320 320 321 320 313 311 311 314 319 319 316 320 322 323 326 325 322 320 320 321 321 320 320 319 320 320 319 320 320 321 322 319 317 316 318 321 329 326
322 322 321 320 320 321 320 320 320 320 320 320 316 313 316 316 317 317 318 319 325 319 325 324 320 320 322 319 320 318 317 318 317 316 315 319 323 320 319 320 320 318 317 318 323 324 331
323 322 322 321 321 320 319 320 321 321 321 320 315 315 319 320 319 319 315 318 317 320 326 321 320 321 320 320 320 319 317 316 316 316 319 318 320 318 320 320 319 319 318 317 334 335 338
323 323 322 322 321 320 320 320 321 321 321 318 313 317 321 322 319 317 316 317 321 321 322 318 324 320 320 318 319 318 316 317 318 315 316 318 321 318 327 326 328 319 322 331 329 341 343
323 323 322 322 322 320 320 320 321 321 321 316 314 320 321 319 318 314 316 316 319 319 319 319 322 323 318 317 316 316 318 318 317 315 315 314 316 318 329 332 331 332 334 330 329 333 339
323 323 322 322 321 320 320 320 320 320 321 317 310 326 321 319 314 311 316 317 318 319 319 319 319 319 322 322 316 316 318 318 331 314 317 314 316 332 335 333 331 332 333 328 328 336 336
322 323 322 320 321 320 321 321 320 320 318 314 314 317 321 319 321 317 317 320 320 323 323 324 321 319 329 330 334 326 320 331 333 319 315 315 323 335 335 331 331 336 336 329 328 330 337
321 322 322 321 320 320 321 321 320 320 318 315 318 331 322 315 314 321 329 332 324 323 323 324 322 323 331 333 331 335 334 335 334 335 339 326 322 331 335 333 332 337 337 334 332 337 337
320 322 322 321 320 321 321 320 321 320 318 314 317 325 324 328 327 328 329 330 332 331 326 321 321 322 329 334 334 335 335 334 333 338 325 327 331 334 335 335 333 334 337 336 335 332 336
321 322 322 322 321 321 321 319 320 320 319 312 316 320 317 322 323 331 327 332 333 332 330 326 324 327 330 330 329 332 334 334 333 330 328 327 335 334 336 337 337 336 335 336 335 337 335
321 322 322 322 321 320 320 319 318 318 320 315 313 314 318 321 327 332 331 333 332 329 330 327 326 333 333 333 333 330 329 328 330 330 330 330 332 332 337 338 334 337 335 335 335 336 335
321 322 321 321 321 320 319 318 317 315 316 315 315 312 317 322 327 334 328 329 329 329 331 327 328 332 334 326 326 324 324 327 327 325 328 332 332 330 338 333 340 331 329 332 335 335 334
321 321 320 320 320 320 318 317 316 315 316 317 315 313 314 318 320 325 327 327 328 327 329 329 328 326 327 325 326 327 328 328 328 326 327 327 328 333 336 335 331 331 335 334 335 333 334
319 319 319 318 316 317 316 315 314 315 315 318 316 316 312 317 319 322 324 326 329 329 329 329 325 323 324 326 328 331 332 330 331 331 324 323 321 328 329 337 338 330 327 327 328 333 330
317 317 316 315 314 314 314 314 314 314 315 316 317 316 315 318 316 318 320 319 325 328 329 324 326 326 321 324 330 331 330 329 330 332 332 327 327 328 329 329 328 325 329 325 332 333 332
315 315 314 314 314 314 314 314 314 314 314 315 318 317 316 315 315 317 318 321 323 325 328 326 326 324 325 327 330 328 327 325 326 326 329 328 329 330 326 330 334 328 332 331 327 327 329
313 313 313 313 313 314 314 314 314 313 313 314 317 316 316 314 316 317 319 320 320 319 318 321 328 327 325 326 325 325 328 323 321 329 322 326 323 328 328 328 324 328 330 327 324 326 326
Wind_Speed
16 16 17 18 19 20 20 20 20 21 21 22 23 23 25 25 24 23 23 23 22 20 18 11 10 10 3 2 6 6 5 16 12 5 1 1 3 2 3 4 3 4 3 4 7 9 8
18 18 18 19 20 20 21 21 21 21 22 23 24 25 25 25 25 24 25 24 22 20 16 8 8 7 2 2 3 4 6 16 9 8 2 3 1 3 3 3 4 4 6 5 6 8 5
18 18 19 20 21 22 22 22 22 22 23 23 25 26 26 26 26 26 26 24 22 20 11 6 6 4 1 7 2 5 7 8 8 6 3 3 3 3 2 2 3 1 8 7 5 4 4
17 18 19 21 21 22 23 23 23 24 24 25 26 27 27 26 27 27 26 23 23 15 5 2 3 3 6 4 6 6 5 5 7 9 5 6 3 2 1 1 7 4 5 3 3 5 5
16 18 19 20 21 23 24 24 25 25 26 26 27 29 28 28 28 27 25 24 13 3 2 2 2 3 8 10 1 2 7 3 6 3 3 1 2 3 5 4 4 8 3 3 1 3 4
16 18 19 20 22 23 25 25 26 27 28 28 29 30 30 29 28 28 24 15 2 2 1 2 1 3 4 4 4 2 6 3 4 3 4 6 5 3 5 6 1 3 2 2 3 2 7
17 18 19 20 22 24 25 26 27 28 30 31 30 32 31 29 28 28 20 1 3 2 1 5 4 4 5 8 4 1 4 5 3 8 3 3 6 2 2 2 3 3 4 4 1 3 6
18 19 20 21 23 24 25 27 28 29 31 32 32 36 33 30 27 20 5 2 4 1 6 7 6 6 9 3 3 1 6 4 4 3 2 5 5 4 3 3 2 1 4 1 5 5 6
19 20 21 23 24 25 26 28 29 31 32 34 35 40 35 28 21 3 7 2 1 7 1 7 5 4 4 9 5 4 6 3 5 4 3 5 4 3 4 3 3 3 4 5 6 6 7
22 21 22 24 25 27 29 29 30 32 33 36 38 43 35 26 3 10 5 2 14 6 4 6 4 6 4 5 2 4 5 5 4 6 7 4 4 3 5 4 6 4 4 7 12 4 4
20 23 25 25 26 28 30 30 31 33 35 38 40 42 31 21 12 3 1 12 2 3 2 2 3 3 1 8 3 2 2 6 7 5 6 6 3 2 4 5 6 7 5 7 3 6 5
19 21 24 26 27 29 30 31 32 34 37 40 44 39 29 9 7 7 7 7 5 5 4 2 4 5 5 2 2 2 3 6 4 5 3 6 3 4 8 2 7 6 7 9 5 4 3
19 21 23 25 27 29 30 31 33 35 38 41 47 35 21 9 3 1 9 2 5 3 4 1 3 4 4 3 1 2 5 4 5 4 2 6 6 4 3 3 2 6 6 3 3 3 5
19 21 23 24 26 29 30 32 34 37 41 44 46 29 9 10 2 12 3 5 2 4 6 4 1 3 6 5 3 4 6 5 1 5 4 4 4 4 2 7 7 5 8 6 6 4 4
19 20 22 24 26 29 31 32 34 38 43 50 37 10 5 4 13 4 5 3 7 5 4 6 1 5 1 2 5 2 6 8 8 8 6 5 5 4 2 2 5 5 2 4 8 4 2
18 20 22 24 25 28 31 31 34 38 43 43 22 9 7 8 14 2 5 5 4 4 5 2 1 3 6 5 5 5 5 4 6 11 4 5 1 2 2 2 7 2 6 4 3 5 4
18 19 22 25 25 28 31 32 34 39 43 29 6 3 12 13 5 5 4 6 5 7 4 2 3 1 5 7 9 6 4 3 5 4 6 5 3 6 2 5 2 1 3 8 6 3 5
17 19 21 25 24 27 30 31 32 37 45 17 5 3 5 6 4 1 3 5 4 6 3 8 3 8 8 6 6 6 10 4 3 8 9 6 5 1 4 2 3 1 5 5 5 4 1
17 17 19 22 22 26 29 30 31 35 37 9 2 2 2 5 3 2 4 5 5 3 5 3 4 6 3 5 4 5 5 4 5 8 10 9 1 3 8 7 3 3 2 4 7 4 5
16 15 16 18 20 24 27 29 30 33 32 6 2 2 3 3 0 2 3 4 5 4 6 5 5 2 2 3 1 5 6 3 5 4 6 9 4 8 9 7 4 4 5 4 5 4 5
15 14 13 16 18 22 26 28 30 31 26 6 3 1 1 2 2 2 1 3 4 5 3 4 2 4 5 4 2 0 0 0 2 4 4 5 4 2 5 3 1 3 5 6 3 3 5
14 12 12 13 16 19 24 26 28 28 21 5 2 3 4 2 2 3 1 2 3 6 3 4 4 1 4 6 6 9 6 3 3 4 3 2 2 4 5 6 7 3 1 6 2 2 6
12 11 11 12 14 16 20 23 25 26 20 7 4 1 2 3 4 1 1 2 5 8 7 9 6 0 3 3 4 3 4 5 4 4 3 3 6 3 3 3 4 4 6 7 4 4 5
10 10 10 11 13 15 18 20 21 20 21 7 2 1 2 3 2 2 3 3 8 5 4 6 4 3 0 5 4 4 9 7 7 7 2 6 5 3 3 3 2 6 4 6 6 3 8
9 8 8 11 12 13 16 17 17 16 17 13 2 0 2 3 3 6 7 4 9 5 3 3 5 2 2 3 4 6 5 3 5 7 6 1 4 4 5 4 4 2 3 5 6 8 7
6 6 8 10 11 12 15 15 14 14 16 13 1 0 2 2 3 3 5 2 3 5 7 5 4 3 2 4 4 3 3 4 1 2 3 4 5 4 3 4 4 7 2 2 4 6 5
6 7 8 10 11 13 13 12 12 13 14 14 1 1 1 1 4 3 3 3 1 1 2 5 8 7 5 3 3 2 2 3 1 5 3 3 3 4 2 2 6 5 2 5 5 7 0
6 7 8 10 11 11 11 12 12 12 13 13 3 1 2 2 6 5 4 4 2 1 1 4 2 3 3 4 3 2 2 2 2 4 4 6 5 3 3 3 4 1 3 6 5 1 3
7 7 9 10 10 11 11 11 10 12 11 11 2 3 8 4 6 7 18 22 20 12 3 2 2 2 3 4 1 3 1 1 1 2 2 1 5 5 6 5 3 3 3 2 4 5 3
Wind_Direction
20 22 21 18 14 10 7 4 3 1 357 355 353 351 349 346 342 342 340 340 336 336 337 333 337 346 7 349 257 358 119 168 172 191 170 75 41 50 357 306 307 133 337 79 85 96 87
25 22 20 18 15 10 7 4 3 359 357 354 352 351 348 343 339 340 339 337 330 328 329 323 334 351 19 346 337 43 141 162 182 177 170 173 136 212 241 292 28 6 81 72 68 81 71
23 22 20 17 15 11 8 6 2 360 356 355 351 348 344 341 337 337 335 333 326 320 313 310 333 3 73 226 76 64 153 177 187 190 164 205 167 46 348 333 356 154 77 49 53 87 113
21 21 20 18 15 12 10 6 2 358 357 353 350 348 344 341 337 334 331 332 325 316 279 294 357 0 249 161 301 268 184 184 192 217 244 275 201 202 308 286 18 101 67 108 243 113 203
17 17 17 15 12 11 9 5 3 359 356 353 349 346 342 338 335 333 332 330 333 20 131 71 17 34 278 315 170 190 186 169 171 194 251 235 111 79 19 52 30 18 62 343 254 180 135
13 10 12 11 9 8 6 3 0 359 357 354 349 346 340 338 336 331 332 333 12 67 103 50 10 23 299 319 329 185 180 138 101 87 52 44 49 67 35 52 99 328 6 336 206 25 53
9 7 4 4 3 3 1 359 356 356 356 354 349 344 339 337 334 329 332 308 7 355 128 209 225 248 272 318 307 136 153 124 66 62 76 356 50 305 216 180 176 210 216 177 83 21 78
8 4 4 0 358 356 355 354 352 352 353 353 349 345 337 336 331 330 0 60 93 75 306 238 243 266 267 278 302 323 162 99 84 115 102 15 275 168 180 154 175 295 300 154 78 16 83
3 1 358 357 355 353 349 349 348 349 349 350 347 345 336 337 332 4 325 200 180 330 179 295 199 191 215 152 204 240 127 128 113 100 52 178 215 346 3 321 48 259 210 187 141 109 53
355 354 353 353 351 350 349 345 345 345 346 346 346 344 338 340 339 329 287 167 318 187 53 279 250 259 137 151 255 202 158 132 52 157 145 247 304 261 299 259 163 322 223 129 150 104 167
349 346 350 349 348 347 346 344 343 343 343 343 343 341 336 335 296 254 179 326 78 121 5 219 211 158 149 144 171 221 145 55 144 152 106 238 197 135 296 206 182 247 52 111 133 92 97
345 345 345 344 346 344 343 343 342 342 340 339 340 337 328 324 271 254 290 336 123 42 256 0 146 149 111 46 91 97 105 61 135 131 43 228 287 227 212 283 163 160 79 45 48 87 39
344 342 343 342 343 342 342 343 343 341 338 338 337 332 305 260 241 179 334 78 45 148 305 352 180 153 133 152 172 112 128 117 143 111 17 322 262 275 159 312 91 86 70 19 24 18 220
344 344 343 340 340 343 343 345 344 342 338 339 334 329 308 242 210 258 326 55 163 252 257 307 75 79 151 153 200 142 122 163 249 99 116 152 304 185 170 193 193 165 157 155 182 188 242
340 342 341 337 340 343 345 346 345 342 340 339 335 332 315 354 197 141 79 87 209 220 302 329 9 103 188 204 170 139 178 187 194 168 157 158 275 301 263 192 124 180 125 161 103 15 64
334 335 338 336 340 345 346 347 345 343 342 341 332 333 0 331 167 106 78 232 248 223 313 324 91 143 175 199 156 153 182 203 197 187 151 197 314 299 290 61 51 135 146 81 21 128 229
328 331 335 334 342 347 347 347 346 346 344 344 339 46 358 119 133 52 146 231 270 256 221 264 224 257 204 182 184 176 198 259 164 160 120 135 108 284 25 23 209 136 82 55 107 87 153
321 330 332 334 345 345 346 347 348 351 348 351 344 61 353 336 56 9 172 203 258 277 255 253 201 206 191 175 188 190 196 234 176 149 164 180 124 124 233 235 180 351 156 134 114 206 136
319 328 329 335 345 343 345 348 350 355 355 346 42 282 49 332 99 343 289 277 237 251 246 265 264 186 176 153 123 180 186 185 157 176 164 180 197 69 347 348 19 55 29 87 101 93 186
316 326 330 334 344 341 346 349 352 358 355 6 36 42 343 50 119 135 330 278 295 225 258 228 257 143 115 91 58 176 184 172 148 155 115 81 105 161 190 203 141 172 175 157 115 123 173
309 322 328 334 340 341 345 349 353 0 357 2 27 346 164 292 342 342 280 303 302 311 251 233 263 232 161 110 42 219 160 179 96 120 71 107 124 106 26 38 66 155 173 182 162 140 161
303 319 326 332 335 338 344 349 354 2 3 50 49 24 352 288 305 294 136 275 296 295 269 282 211 249 177 157 168 197 167 210 154 63 87 67 143 121 34 12 30 24 59 192 231 156 291
297 313 322 327 327 336 342 348 356 0 15 32 14 19 105 293 329 9 253 300 284 329 268 238 268 119 155 212 174 113 82 90 74 135 124 83 137 105 166 12 9 333 223 193 204 183 168
296 307 317 319 323 334 339 347 353 5 12 5 355 0 60 290 305 260 298 302 281 281 254 312 27 143 51 95 144 66 70 56 54 52 46 126 104 70 143 87 184 235 253 206 184 224 206
293 297 308 317 321 328 332 340 347 359 359 354 306 94 97 300 266 298 320 275 308 313 237 283 349 311 145 40 59 45 2 72 358 15 32 46 109 90 142 198 267 71 198 151 159 267 194
292 298 309 322 329 328 331 338 347 353 353 357 290 177 114 102 255 309 311 338 309 326 339 335 333 282 81 71 66 110 190 205 253 42 67 52 71 119 157 133 188 233 247 173 118 293 204
302 306 314 322 330 333 337 341 344 347 350 351 257 287 166 197 270 188 241 301 290 295 264 311 338 354 35 62 72 142 240 206 195 173 180 27 19 137 123 148 289 248 173 139 113 240 312
306 313 317 323 328 331 332 336 341 344 344 353 296 93 0 229 274 217 239 229 318 136 92 286 8 339 28 67 124 206 141 249 333 167 183 172 141 171 82 84 277 179 82 149 217 9 133
303 312 317 322 325 325 327 333 340 342 340 347 298 246 296 209 255 252 251 254 249 227 109 294 214 243 199 90 106 119 144 40 124 242 41 212 175 180 169 208 252 280 243 309 147 132 140